Dover AFB, DE

1:09 PM EST on December 16, 2017 (GMT -0500)
Dover Air Force Base

Weather History for KDOV - March, 2013

Change the Weather History Date:

Saturday, March 30, 2013

  Actual Average Record
Temperature  
Mean Temperature 46 °F -  
Max Temperature 58 °F 61 °F 86 °F (1998)
Min Temperature 35 °F 41 °F 28 °F (1964)
Degree Days  
Heating Degree Days 18    
Moisture  
Dew Point 29 °F    
Average Humidity 54    
Maximum Humidity 82    
Minimum Humidity 26    
Precipitation  
Precipitation 0.00 in - - ()
Sea Level Pressure  
Sea Level Pressure 30.17 in    
Wind  
Wind Speed 5 mph (WSW)    
Max Wind Speed 14 mph    
Max Gust Speed 18 mph    
Visibility 10 miles    
Events      
Averages and records for this station are not official NWS values.
T = Trace of Precipitation, MM = Missing Value Source: NWS Daily Summary

Daily Weather History Graph

Daily Weather History Graph

Search for Another Location

Airport or City:

Trip Planner

Search our weather history database for the weather conditions in past years. The results will help you decide how hot, cold, wet, or windy it might be!

Date:

Astronomy

Mar. 30, 2013 Rise Set
Actual Time 6:49 AM EDT 7:23 PM EDT
Civil Twilight 6:22 AM EDT 7:50 PM EDT
Nautical Twilight 5:50 AM EDT 8:22 PM EDT
Astronomical Twilight 5:18 AM EDT 8:55 PM EDT
Moon 11:26 PM EDT (3/30) 8:44 AM EDT (3/30)
Length of Visible Light 13h 28m
Length of Day
12h 34m
Waning Gibbous, 86% of the Moon is Illuminated
Mar 30
Waning Gibbous
Apr 3
Last Quarter
Apr 10
New
Apr 18
First Quarter
Apr 25
Full

Hourly Weather History & Observations

Time (EDT) Temp. Windchill Dew Point Humidity Pressure Visibility Wind Dir Wind Speed Gust Speed Precip Events Conditions
12:55 AM 44.1 °F 40.8 °F 27.7 °F 53% 30.18 in 10.0 mi West 5.8 mph - N/A   Overcast
1:55 AM 43.0 °F 40.3 °F 28.9 °F 58% 30.18 in 10.0 mi West 4.6 mph - N/A   Overcast
2:55 AM 40.5 °F - 28.4 °F 62% 30.17 in 10.0 mi Calm Calm - N/A   Scattered Clouds
3:55 AM 39.0 °F 36.8 °F 33.8 °F 82% 30.17 in 10.0 mi SW 3.5 mph - N/A   Partly Cloudy
4:55 AM 38.7 °F - 28.2 °F 66% 30.17 in 10.0 mi Calm Calm - N/A   Clear
5:55 AM 36.7 °F - 30.9 °F 80% 30.18 in 10.0 mi Calm Calm - N/A   Clear
6:55 AM 35.4 °F - 28.6 °F 76% 30.19 in 10.0 mi Calm Calm - N/A   Scattered Clouds
7:55 AM 39.4 °F - 32.2 °F 75% 30.21 in 10.0 mi Calm Calm - N/A   Clear
8:55 AM 46.2 °F 43.3 °F 30.4 °F 54% 30.22 in 10.0 mi WNW 5.8 mph - N/A   Mostly Cloudy
9:55 AM 49.5 °F - 30.6 °F 48% 30.22 in 10.0 mi NW 5.8 mph - N/A   Partly Cloudy
10:55 AM 51.6 °F - 29.3 °F 42% 30.21 in 10.0 mi Calm Calm - N/A   Clear
11:55 AM 54.1 °F - 27.7 °F 36% 30.20 in 10.0 mi West 5.8 mph - N/A   Clear
12:55 PM 56.8 °F - 26.4 °F 31% 30.18 in 10.0 mi West 10.4 mph - N/A   Partly Cloudy
1:55 PM 57.4 °F - 25.9 °F 30% 30.15 in 10.0 mi NW 10.4 mph - N/A   Scattered Clouds
2:55 PM 57.6 °F - 25.3 °F 29% 30.14 in 10.0 mi WNW 13.8 mph 18.4 mph N/A   Mostly Cloudy
3:55 PM 58.3 °F - 24.1 °F 27% 30.12 in 10.0 mi West 9.2 mph - N/A   Clear
4:55 PM 58.1 °F - 23.4 °F 26% 30.12 in 10.0 mi West 6.9 mph - N/A   Clear
5:55 PM 57.0 °F - 23.7 °F 28% 30.12 in 10.0 mi West 8.1 mph - N/A   Scattered Clouds
6:55 PM 51.8 °F - 31.6 °F 46% 30.13 in 10.0 mi East 6.9 mph - N/A   Clear
7:55 PM 45.3 °F 42.3 °F 35.1 °F 67% 30.13 in 10.0 mi East 5.8 mph - N/A   Clear
8:55 PM 43.5 °F 38.3 °F 32.7 °F 66% 30.14 in 10.0 mi SE 9.2 mph - N/A   Clear
9:55 PM 41.9 °F 38.2 °F 31.5 °F 66% 30.17 in 10.0 mi SSE 5.8 mph - N/A   Clear
10:55 PM 40.5 °F 35.8 °F 31.3 °F 70% 30.17 in 10.0 mi SSE 6.9 mph - N/A   Clear
11:55 PM 39.9 °F 35.8 °F 32.4 °F 74% 30.16 in 10.0 mi SSE 5.8 mph - N/A   Clear